WetterOnline ( http://www.wetteronline.de )

Wetter aktuell Burgstetten

Aktuelles Wetter: Kaisersbach-Cronhütte (489m)

6-stündlich | Neueste Meldungen
Ortszeit Temperatur Wetter
So, 17.02. 7:00 -3.7° C leicht bewölkt
So, 17.02. 1:00 -2.4° C wolkenlos
Sa, 16.02. 19:00 4.1° C leicht bewölkt
Sa, 16.02. 13:00 13.2° C wolkenlos
Sa, 16.02. 7:00 -4.1° C wolkenlos
Sa, 16.02. 1:00 -2.6° C wolkenlos
Fr, 15.02. 19:00 4.8° C wolkenlos
Fr, 15.02. 13:00 13.0° C wolkenlos
Ortszeit Temperatur Wetter
So, 17.02. 8:00 -3.6° C wolkig
So, 17.02. 7:50 -3.6° C wolkig
So, 17.02. 7:40 -3.5° C wolkig
So, 17.02. 7:30 -3.5° C wolkig
So, 17.02. 7:20 -3.5° C wolkig
So, 17.02. 7:10 -3.7° C wolkig
So, 17.02. 7:00 -3.7° C leicht bewölkt
So, 17.02. 6:30 -3.3° C wolkenlos
So, 17.02. 6:00 -3.6° C wolkenlos
So, 17.02. 5:30 -3.5° C wolkenlos
So, 17.02. 5:00 -3.1° C wolkenlos
Ortszeit Relative Feuchte Sichtweite
So, 17.02. 7:00 96% 7 km
So, 17.02. 1:00 89% 22 km
Sa, 16.02. 19:00 68% 35 km
Sa, 16.02. 13:00 31% 40 km
Sa, 16.02. 7:00 93% 25 km
Sa, 16.02. 1:00 91% 30 km
Fr, 15.02. 19:00 60% 70 km
Fr, 15.02. 13:00 36% 60 km
Ortszeit Relative Feuchte Sichtweite
So, 17.02. 8:00 92% 8 km
So, 17.02. 7:50 92% -
So, 17.02. 7:40 93% -
So, 17.02. 7:30 94% 7 km
So, 17.02. 7:20 94% -
So, 17.02. 7:10 95% -
So, 17.02. 7:00 96% 7 km
So, 17.02. 6:30 95% 9 km
So, 17.02. 6:00 94% 9 km
So, 17.02. 5:30 94% 9 km
So, 17.02. 5:00 93% 10 km
Ortszeit Niederschlagsmenge Niederschlagsart
So, 17.02. 7:00 0.0 l/m2 in 12 Std. -
So, 17.02. 1:00 0.0 l/m2 in 6 Std. -
Sa, 16.02. 19:00 0.0 l/m2 in 12 Std. -
Sa, 16.02. 13:00 0.0 l/m2 in 6 Std. -
Sa, 16.02. 7:00 0.0 l/m2 in 12 Std. -
Sa, 16.02. 1:00 0.0 l/m2 in 6 Std. -
Fr, 15.02. 19:00 0.0 l/m2 in 12 Std. -
Fr, 15.02. 13:00 0.0 l/m2 in 6 Std. -
Ortszeit Niederschlagsmenge Niederschlagsart
So, 17.02. 8:00 0.0 l/m2 in 1 Std. -
So, 17.02. 7:50 keine Meldung -
So, 17.02. 7:40 keine Meldung -
So, 17.02. 7:30 0.0 l/m2 in 1 Std. -
So, 17.02. 7:20 keine Meldung -
So, 17.02. 7:10 keine Meldung -
So, 17.02. 7:00 0.0 l/m2 in 1 Std. -
So, 17.02. 6:30 0.0 l/m2 in 1 Std. -
So, 17.02. 6:00 0.0 l/m2 in 1 Std. -
So, 17.02. 5:30 0.0 l/m2 in 1 Std. -
So, 17.02. 5:00 0.0 l/m2 in 1 Std. -
Ortszeit Stärke Spitze Richtung
km/h Bft. km/h Grad Sektor
So, 17.02. 7:00 0 0 4 - -
So, 17.02. 1:00 0 0 4 - -
Sa, 16.02. 19:00 4 1 14 310° NW
Sa, 16.02. 13:00 7 2 14 250° W
Sa, 16.02. 7:00 2 1 4 290° W
Sa, 16.02. 1:00 2 1 6 310° NW
Fr, 15.02. 19:00 4 1 29 110° O
Fr, 15.02. 13:00 11 2 22 100° O
Ortszeit Stärke Spitze Richtung
km/h Bft. km/h Grad Sektor
So, 17.02. 8:00 0 0 4 - -
So, 17.02. 7:50 0 0 - 260° W
So, 17.02. 7:40 0 0 - 310° NW
So, 17.02. 7:30 0 0 4 - -
So, 17.02. 7:20 2 1 - 320° NW
So, 17.02. 7:10 2 1 - 340° N
So, 17.02. 7:00 0 0 4 - -
So, 17.02. 6:30 0 0 4 - -
So, 17.02. 6:00 0 0 4 - -
So, 17.02. 5:30 0 0 4 - -
So, 17.02. 5:00 2 1 4 310° NW
Ortszeit Untergrenze Bedeckung Gattung
total tief tief mittel hoch
So, 17.02. 7:00 10500 m 4/8 0/8 - - -
So, 17.02. 1:00 - 0/8 0/8 - - -
Sa, 16.02. 19:00 7200 m 3/8 0/8 - - -
Sa, 16.02. 13:00 - 0/8 0/8 - - -
Sa, 16.02. 7:00 - 0/8 0/8 - - -
Sa, 16.02. 1:00 - 0/8 0/8 - - -
Fr, 15.02. 19:00 - 0/8 0/8 - - -
Fr, 15.02. 13:00 - 0/8 0/8 - - -
Ortszeit Bedeckungsgrad in Achtel und Wolkenuntergrenze
So, 17.02. 8:00 8(10500m)
So, 17.02. 7:50 8(10500m)
So, 17.02. 7:40 8(10500m)
So, 17.02. 7:30 8(10500m)
So, 17.02. 7:20 8(10500m)
So, 17.02. 7:10 7(10500m)
So, 17.02. 7:00 4(10500m)
So, 17.02. 6:30 keine Wolken
So, 17.02. 6:00 keine Wolken
So, 17.02. 5:30 keine Wolken
So, 17.02. 5:00 keine Wolken
Ortszeit Luftdruck NN (hPa) Tendenz (hPa in 3 Std.)
So, 17.02. 7:00 1029 - 0,1
So, 17.02. 1:00 1030 - 0,7
Sa, 16.02. 19:00 1030 + 0,4
Sa, 16.02. 13:00 1028 - 0,6
Sa, 16.02. 7:00 1033 + 0,1
Sa, 16.02. 1:00 1033 - 0,7
Fr, 15.02. 19:00 1033 - 0,3
Fr, 15.02. 13:00 1033 - 0,9
Ortszeit Luftdruck NN (hPa) Tendenz (hPa in 3 Std.)
So, 17.02. 8:00 1029 + 0,1
So, 17.02. 7:50 1029 keine Meldung
So, 17.02. 7:40 1029 keine Meldung
So, 17.02. 7:30 1029 0,0
So, 17.02. 7:20 1029 keine Meldung
So, 17.02. 7:10 1029 keine Meldung
So, 17.02. 7:00 1029 - 0,1
So, 17.02. 6:30 1029 - 0,3
So, 17.02. 6:00 1029 - 0,4
So, 17.02. 5:30 1029 - 0,6
So, 17.02. 5:00 1029 - 0,7
Ortszeit Schneehöhe (cm)
So, 17.02. 7:00 0
So, 17.02. 1:00 0
Sa, 16.02. 19:00 0
Sa, 16.02. 13:00 0
Sa, 16.02. 7:00 0
Sa, 16.02. 1:00 0
Fr, 15.02. 19:00 0
Fr, 15.02. 13:00 0
Ortszeit Schneehöhe (cm)
So, 17.02. 8:00 0
So, 17.02. 7:50 0
So, 17.02. 7:40 0
So, 17.02. 7:30 0
So, 17.02. 7:20 0
So, 17.02. 7:10 0
So, 17.02. 7:00 0
So, 17.02. 6:30 0
So, 17.02. 6:00 0
So, 17.02. 5:30 0
So, 17.02. 5:00 0
Link zu dieser Seite / Seite empfehlen

Das Wetter in ...